Home > Time Zones > World Clock > Weather > Palau > Koror > Past weeks

Flag for Palau Weather past 2 weeks in Koror, Palau

Now
79 °F

Partly cloudy.


Feels Like: 82 °F
Forecast: 79 / 88 °F
Wind: No wind

Location: Koror / Palau Island

Current Time: Feb 1, 2015 at 12:33:47 AM

Latest Report: Jan 31, 2015 at 11:54 PM


Visibility: 15 mi

Pressure: 29.88 "Hg

Humidity: 89%

Dew point: 75 °F

Location of KororLocation

Historic Weather in Koror — Graph

°F

Koror temperature yesterday

Maximum temperature yesterday: 88 °F (at 1:50 PM)
Minimum temperature yesterday: 77 °F (at 4:00 AM)
Average temperature yesterday: 81 °F

Past Weeks' High & Low Weather Summary

 TemperatureHumidityPressure
High88 °F (Jan 18, 10:50 AM)100% (Jan 18, 3:51 AM)29.97 "Hg (Jan 18, 3:51 AM)
Low75 °F (Jan 18, 3:51 AM)66% (Jan 31, 1:50 PM)28.86 "Hg (Jan 24, 2:54 AM)
Average81 °F86%29.86 "Hg
* Reported Jan 16 10:55 PM — Jan 31 10:50 PM, Koror, Weather by CustomWeather, © 2014

Note: Actual official high and low records may vary slightly from our data, if they occured in-between our weather recording intervals... More about our weather records

Advertising

Koror weather history for previous 24 hours

 ConditionsComfort  
Time TempWeatherWind HumidityBarometerVisibility
10:50 PM
Jan 31
79 °FPartly cloudy.No wind89%29.88 "Hg15 mi
9:55 PM79 °FPartly cloudy.No wind89%29.88 "Hg15 mi
8:52 PM79 °FPartly cloudy.No wind89%29.87 "Hg15 mi
7:51 PM79 °FPartly cloudy.5 mph89%29.85 "Hg15 mi
6:54 PM81 °FPartly cloudy.3 mph84%29.85 "Hg15 mi
5:50 PM82 °FBroken clouds.5 mph79%29.83 "Hg15 mi
4:53 PM84 °FBroken clouds.9 mph74%29.81 "Hg15 mi
3:50 PM84 °FBroken clouds.14 mph74%29.81 "Hg15 mi
2:50 PM86 °FBroken clouds.12 mph75%29.81 "Hg15 mi
1:50 PM88 °FBroken clouds.13 mph66%29.82 "Hg15 mi
12:50 PM84 °FBroken clouds.12 mph74%29.85 "Hg15 mi
11:50 AM84 °FPartly sunny.9 mph74%29.87 "Hg15 mi
10:50 AM84 °FBroken clouds.10 mph74%29.89 "Hg15 mi
9:50 AM84 °FBroken clouds.8 mph79%29.90 "Hg15 mi
8:50 AM82 °FBroken clouds.7 mph84%29.91 "Hg15 mi
7:51 AM81 °FCloudy.5 mph89%29.89 "Hg15 mi
6:50 AM77 °FBroken clouds.3 mph94%29.86 "Hg15 mi
5:55 AM77 °FPartly cloudy.3 mph94%29.85 "Hg15 mi
4:00 AM77 °FPassing clouds.5 mph94%29.84 "Hg14 mi
3:50 AM79 °FPassing clouds.3 mph89%29.83 "Hg14 mi
2:50 AM79 °FPassing clouds.No wind94%29.84 "Hg14 mi
1:50 AM79 °FPassing clouds.3 mph89%29.85 "Hg14 mi
12:50 AM79 °FPassing clouds.6 mph94%29.87 "Hg14 mi
Weather by CustomWeather, © 2014

See weather overviewHow to use our weather pages